This demonstration page uses our WeatherBlox Daily Observations layout. Learn more.

Hourly Observations for March 13, 2018

Temp ( °F °C ) Dew Point ( °F °C ) Humidity (%) Winds ( mph kmh ) Pressure ( in mb ) Visibility ( mi km ) Precip ( " mm )
12:15 am 00:15 Mostly Cloudy 32 0 32 0 100 100 NNW 12 19 29.85 1011 10 16.09344 0 0
12:35 am 00:35 Cloudy 34 1 32 0 93 93 NNW 8 13 29.85 1011 10 16.09344 0 0
12:55 am 00:55 Cloudy 34 1 32 0 93 93 N 7 11 29.85 1011 10 16.09344 0 0
1:15 am 01:15 Partly Cloudy 32 0 32 0 100 100 N 8 13 29.85 1011 10 16.09344 0 0
1:35 am 01:35 Partly Cloudy 32 0 32 0 100 100 N 7 11 29.85 1011 10 16.09344 0 0
1:55 am 01:55 Partly Cloudy 32 0 32 0 100 100 N 8 13 29.85 1011 10 16.09344 0 0
2:15 am 02:15 Partly Cloudy 32 0 32 0 100 100 NNW 10 17 29.85 1011 10 16.09344 0 0
2:35 am 02:35 Partly Cloudy 32 0 30 -1 93 93 NNW 13 20 29.85 1011 10 16.09344 0 0
2:55 am 02:55 Clear 32 0 30 -1 93 93 NNW 14 22 29.83 1010 10 16.09344 0 0
3:15 am 03:15 Clear 32 0 28 -2 87 87 NNW 13 20 29.83 1010 10 16.09344 0 0
3:35 am 03:35 Clear 34 1 27 -3 75 75 NNW 20 31 29.83 1010 10 16.09344 0 0
3:55 am 03:55 Clear 34 1 27 -3 75 75 NNW 17 28 29.83 1010 10 16.09344 0 0
4:15 am 04:15 Clear 34 1 27 -3 75 75 NNW 14 22 29.83 1010 10 16.09344 0 0
4:35 am 04:35 Clear 32 0 27 -3 80 80 NW 14 22 29.83 1010 10 16.09344 0 0
4:55 am 04:55 Clear 32 0 27 -3 80 80 NW 16 26 29.83 1010 10 16.09344 0 0
5:15 am 05:15 Clear 32 0 27 -3 80 80 NW 22 35 29.85 1011 10 16.09344 0 0
5:35 am 05:35 Clear 32 0 25 -4 75 75 NNW 20 31 29.85 1011 10 16.09344 0 0
5:55 am 05:55 Clear 32 0 23 -5 69 69 NNW 18 30 29.85 1011 10 16.09344 0 0
6:15 am 06:15 Clear 32 0 23 -5 69 69 NNW 16 26 29.85 1011 10 16.09344 0 0
6:35 am 06:35 Clear 32 0 23 -5 69 69 NW 12 19 29.85 1011 10 16.09344 0 0
6:55 am 06:55 Clear 32 0 23 -5 69 69 NW 13 20 29.85 1011 10 16.09344 0 0
7:15 am 07:15 Clear 32 0 23 -5 69 69 NW 22 35 29.85 1011 10 16.09344 0 0
7:35 am 07:35 Sunny 32 0 23 -5 69 69 NW 16 26 29.85 1011 10 16.09344 0 0
7:55 am 07:55 Sunny 32 0 23 -5 69 69 NW 17 28 29.88 1012 10 16.09344 0 0
8:15 am 08:15 Sunny 32 0 23 -5 69 69 NNW 16 26 29.91 1013 10 16.09344 0 0
8:35 am 08:35 Sunny 34 1 23 -5 65 65 N 12 19 29.91 1013 10 16.09344 0 0
8:55 am 08:55 Partly Cloudy 34 1 23 -5 65 65 N 16 26 29.91 1013 10 16.09344 0 0
9:15 am 09:15 Partly Cloudy 36 2 23 -5 60 60 NNW 14 22 29.91 1013 10 16.09344 0 0
9:35 am 09:35 Partly Cloudy 36 2 23 -5 60 60 NW 21 33 29.91 1013 10 16.09344 0 0
9:55 am 09:55 Partly Cloudy 36 2 21 -6 56 56 NNW 17 28 29.91 1013 10 16.09344 0 0
10:15 am 10:15 Partly Cloudy 36 2 21 -6 56 56 NNW 16 26 29.91 1013 10 16.09344 0 0
10:35 am 10:35 Mostly Cloudy 37 3 21 -6 52 52 NNW 18 30 29.91 1013 10 16.09344 0 0
10:55 am 10:55 Cloudy 39 4 23 -5 52 52 NNW 20 31 29.91 1013 10 16.09344 0 0
11:15 am 11:15 Cloudy 41 5 23 -5 49 49 NW 18 30 29.91 1013 10 16.09344 0 0
11:35 am 11:35 Mostly Cloudy 41 5 23 -5 49 49 NW 25 41 29.91 1013 10 16.09344 0 0
11:55 am 11:55 Mostly Cloudy 41 5 21 -6 45 45 NNW 22 35 29.91 1013 10 16.09344 0 0
12:15 pm 12:15 Mostly Cloudy 41 5 21 -6 45 45 NNW 22 35 29.91 1013 10 16.09344 0 0
12:35 pm 12:35 Mostly Cloudy 43 6 21 -6 42 42 NNW 20 31 29.91 1013 10 16.09344 0 0
12:55 pm 12:55 Partly Cloudy 43 6 21 -6 42 42 NW 21 33 29.91 1013 10 16.09344 0 0
1:15 pm 13:15 Mostly Cloudy 43 6 21 -6 42 42 NNW 17 28 29.88 1012 10 16.09344 0 0
1:35 pm 13:35 Mostly Cloudy 43 6 21 -6 42 42 NNW 21 33 29.88 1012 10 16.09344 0 0
1:55 pm 13:55 Partly Cloudy 45 7 21 -6 39 39 NW 25 41 29.88 1012 10 16.09344 0 0
2:15 pm 14:15 Mostly Cloudy 45 7 21 -6 39 39 NW 20 31 29.85 1011 10 16.09344 0 0
2:35 pm 14:35 Cloudy 45 7 21 -6 39 39 NW 23 37 29.85 1011 10 16.09344 0 0
2:55 pm 14:55 Cloudy 43 6 19 -7 39 39 NNW 16 26 29.85 1011 10 16.09344 0 0
3:15 pm 15:15 Cloudy 45 7 21 -6 39 39 WNW 24 39 29.85 1011 10 16.09344 0 0
3:35 pm 15:35 Mostly Cloudy 43 6 19 -7 39 39 WNW 22 35 29.88 1012 10 16.09344 0 0
3:55 pm 15:55 Mostly Cloudy 45 7 21 -6 39 39 WNW 24 39 29.85 1011 10 16.09344 0 0
4:15 pm 16:15 Mostly Cloudy 45 7 21 -6 39 39 WNW 20 31 29.88 1012 10 16.09344 0 0
4:35 pm 16:35 Mostly Cloudy 45 7 19 -7 37 37 NW 22 35 29.88 1012 10 16.09344 0 0
4:55 pm 16:55 Mostly Cloudy 45 7 19 -7 37 37 WNW 21 33 29.88 1012 10 16.09344 0 0
5:15 pm 17:15 Mostly Cloudy 45 7 19 -7 37 37 NNW 18 30 29.85 1011 10 16.09344 0 0
5:35 pm 17:35 Cloudy 43 6 19 -7 39 39 WNW 21 33 29.88 1012 10 16.09344 0 0
5:55 pm 17:55 Cloudy 43 6 19 -7 39 39 WNW 14 22 29.88 1012 10 16.09344 0 0
6:15 pm 18:15 Cloudy 41 5 19 -7 42 42 NNW 13 20 29.88 1012 10 16.09344 0 0
6:35 pm 18:35 Mostly Cloudy 41 5 19 -7 42 42 NNW 15 24 29.88 1012 10 16.09344 0 0
6:55 pm 18:55 Cloudy 41 5 19 -7 42 42 NW 14 22 29.88 1012 10 16.09344 0 0
7:15 pm 19:15 Partly Cloudy 39 4 19 -7 45 45 NW 8 13 29.88 1012 10 16.09344 0 0
7:35 pm 19:35 Clear 37 3 21 -6 52 52 NNW 8 13 29.91 1013 10 16.09344 0 0
7:55 pm 19:55 Mostly Cloudy 37 3 21 -6 52 52 NW 7 11 29.91 1013 10 16.09344 0 0
8:15 pm 20:15 Cloudy 37 3 23 -5 56 56 WNW 9 15 29.91 1013 10 16.09344 0 0
8:35 pm 20:35 Cloudy 37 3 23 -5 56 56 WNW 10 17 29.91 1013 10 16.09344 0 0
8:55 pm 20:55 Partly Cloudy 37 3 23 -5 56 56 WNW 16 26 29.91 1013 10 16.09344 0 0
9:15 pm 21:15 Mostly Cloudy 37 3 23 -5 56 56 WNW 10 17 29.91 1013 10 16.09344 0 0
9:35 pm 21:35 Mostly Cloudy 36 2 25 -4 65 65 WNW 14 22 29.91 1013 10 16.09344 0 0
9:55 pm 21:55 Partly Cloudy 36 2 27 -3 70 70 W 12 19 29.91 1013 10 16.09344 0 0
10:15 pm 22:15 Clear 34 1 27 -3 75 75 WNW 10 17 29.94 1014 10 16.09344 0 0
10:35 pm 22:35 Clear 34 1 27 -3 75 75 WNW 12 19 29.91 1013 10 16.09344 0 0
10:55 pm 22:55 Clear 34 1 27 -3 75 75 W 7 11 29.91 1013 10 16.09344 0 0
11:15 pm 23:15 Clear 32 0 27 -3 80 80 W 8 13 29.94 1014 10 16.09344 0 0
11:30 pm 23:30 Clear 32 0 27 -3 80 80 W 8 13 29.91 1013 10 16.09344 0 0
11:55 pm 23:55 Clear 32 0 27 -3 80 80 W 7 11 29.91 1013 10 16.09344 0 0

Powered by AerisWeather